GW0353 Weather Reports


Display with metric or nautical units.
time (UTC)temp
F
wind
direction
speed
MPH
gust
MPH
rain 1hr
in
rain 24hr
in
rain mn
in
humidity
%
barometer
mb
20260509072600 47 0 0.0 1.0 0.00 0.00 0.00 54 1024.7
20260509072059 47 0 0.0 1.0 0.00 0.00 0.00 54 1024.7
20260509071558 47 0 0.0 1.0 0.00 0.00 0.00 53 1024.6
20260509071058 47 0 0.0 1.0 0.00 0.00 0.00 54 1024.6
20260509070559 47 0 0.0 1.0 0.00 0.00 0.00 54 1024.5
20260509070057 48 0 0.0 1.0 0.00 0.00 0.00 56 1024.5
20260509065558 48 0 0.0 1.0 0.00 0.00 0.00 52 1024.5
20260509065058 48 0 0.0 1.0 0.00 0.00 0.00 51 1024.4
20260509064617 49 0 0.0 1.0 0.00 0.00 0.00 51 1024.4
20260509064058 49 0 0.0 0.0 0.00 0.00 0.00 52 1024.5
20260509063558 49 0 0.0 0.0 0.00 0.00 0.00 54 1024.6
20260509063059 49 0 0.0 0.0 0.00 0.00 0.00 54 1024.6
20260509062558 49 0 0.0 1.0 0.00 0.00 0.00 52 1024.6
20260509062101 49 0 0.0 2.0 0.00 0.00 0.00 52 1024.8
20260509061558 49 235 0.0 2.0 0.00 0.00 0.00 55 1024.7
20260509061057 49 179 1.0 3.0 0.00 0.00 0.00 57 1024.6
20260509060557 49 0 0.0 3.0 0.00 0.00 0.00 58 1024.8
20260509060108 49 177 1.0 3.0 0.00 0.00 0.00 58 1024.8
20260509055600 49 233 0.0 2.0 0.00 0.00 0.00 60 1024.8
20260509055101 49 0 0.0 2.0 0.00 0.00 0.00 61 1024.9
20260509054603 49 176 0.0 2.0 0.00 0.00 0.00 62 1024.7
20260509054101 51 167 0.0 2.0 0.00 0.00 0.00 61 1024.7
20260509053558 51 207 0.0 5.0 0.00 0.00 0.00 64 1024.9
20260509053108 51 0 0.0 5.0 0.00 0.00 0.00 61 1024.9
20260509052557 52 210 0.0 5.0 0.00 0.00 0.00 60 1024.7
20260509052058 51 0 1.0 2.0 0.00 0.00 0.00 64 1024.7
20260509051603 52 0 0.0 2.0 0.00 0.00 0.00 62 1024.7
20260509051058 52 166 0.0 1.0 0.00 0.00 0.00 63 1024.7
20260509050600 53 70 0.0 1.0 0.00 0.00 0.00 61 1024.5
20260509050105 53 0 0.0 1.0 0.00 0.00 0.00 63 1024.7
20260509045557 53 0 0.0 0.0 0.00 0.00 0.00 60 1024.7
20260509045057 54 0 0.0 0.0 0.00 0.00 0.00 61 1024.5
20260509044559 54 0 0.0 1.0 0.00 0.00 0.00 58 1024.7
20260509044058 55 0 0.0 1.0 0.00 0.00 0.00 55 1024.5
20260509043557 55 0 0.0 2.0 0.00 0.00 0.00 55 1024.6
20260509043101 56 0 0.0 2.0 0.00 0.00 0.00 55 1024.6
20260509042558 55 46 0.0 2.0 0.00 0.00 0.00 55 1024.4
20260509042058 56 0 0.0 1.0 0.00 0.00 0.00 53 1024.3
20260509041556 56 0 0.0 1.0 0.00 0.00 0.00 55 1024.3
20260509041058 57 199 0.0 1.0 0.00 0.00 0.00 51 1024.3
20260509040557 57 0 0.0 2.0 0.00 0.00 0.00 53 1024.3
20260509040100 57 0 0.0 2.0 0.00 0.00 0.00 51 1024.2
20260509035600 57 237 1.0 2.0 0.00 0.00 0.00 53 1024.3
20260509035100 58 0 0.0 2.0 0.00 0.00 0.00 56 1024.0
20260509034558 58 0 0.0 2.0 0.00 0.00 0.00 52 1023.9
20260509034057 58 82 0.0 2.0 0.00 0.00 0.00 53 1024.0
20260509033600 58 169 0.0 6.0 0.00 0.00 0.00 51 1023.8
20260509033109 59 0 0.0 7.0 0.00 0.00 0.00 51 1023.7
20260509032558 59 60 4.0 8.0 0.00 0.00 0.00 51 1023.6
20260509032058 59 69 6.0 8.0 0.00 0.00 0.00 53 1023.5
20260509031605 59 83 0.0 4.0 0.00 0.00 0.00 32 1023.3
20260509031058 60 0 1.0 4.0 0.00 0.00 0.00 31 1023.1
20260509030558 61 161 0.0 2.0 0.00 0.00 0.00 30 1023.1
20260509030057 62 191 0.0 1.0 0.00 0.00 0.00 27 1023.2
20260509025557 63 0 0.0 3.0 0.00 0.00 0.00 26 1023.1
20260509025102 64 0 0.0 3.0 0.00 0.00 0.00 26 1023.0
20260509024555 64 314 0.0 3.0 0.00 0.00 0.00 28 1022.9
20260509024059 65 0 1.0 3.0 0.00 0.00 0.00 32 1022.9
20260509023558 65 311 0.0 4.0 0.00 0.00 0.00 32 1022.9
20260509023106 66 0 1.0 4.0 0.00 0.00 0.00 27 1022.9
20260509022558 66 7 0.0 4.0 0.00 0.00 0.00 28 1022.9
20260509022058 66 13 0.0 3.0 0.00 0.00 0.00 26 1022.9
20260509021559 67 336 0.0 2.0 0.00 0.00 0.00 27 1022.9
20260509021102 68 23 0.0 2.0 0.00 0.00 0.00 23 1022.7
20260509020557 68 20 0.0 4.0 0.00 0.00 0.00 22 1022.7
20260509020057 68 252 1.0 5.0 0.00 0.00 0.00 23 1022.7
20260509015558 69 0 0.0 5.0 0.00 0.00 0.00 23 1022.6
20260509015059 69 0 0.0 4.0 0.00 0.00 0.00 22 1022.6
20260509014555 70 55 0.0 7.0 0.00 0.00 0.00 22 1022.6
20260509014058 71 248 0.0 7.0 0.00 0.00 0.00 21 1022.5
20260509013558 72 200 0.0 2.0 0.00 0.00 0.00 20 1022.6
20260509013109 72 143 0.0 7.0 0.00 0.00 0.00 19 1022.4
20260509012558 73 77 1.0 7.0 0.00 0.00 0.00 19 1022.5
20260509012058 73 0 1.0 6.0 0.00 0.00 0.00 19 1022.5
20260509011559 73 309 2.0 7.0 0.00 0.00 0.00 18 1022.6
20260509011057 73 272 1.0 7.0 0.00 0.00 0.00 18 1022.5
20260509010601 73 265 1.0 6.0 0.00 0.00 0.00 18 1022.6
20260509010059 74 0 1.0 8.0 0.00 0.00 0.00 18 1022.6
20260509005559 74 330 1.0 8.0 0.00 0.00 0.00 19 1022.6
20260509005058 74 0 2.0 9.0 0.00 0.00 0.00 19 1022.6
20260509004628 74 295 1.0 10.0 0.00 0.00 0.00 19 1022.5
20260509004058 74 246 2.0 10.0 0.00 0.00 0.00 18 1022.6
20260509003558 75 111 0.0 9.0 0.00 0.00 0.00 19 1022.6
20260509003102 75 96 1.0 9.0 0.00 0.00 0.00 18 1022.6
20260509002558 75 349 1.0 6.0 0.00 0.00 0.00 18 1022.6
20260509002058 76 55 0.0 6.0 0.00 0.00 0.00 18 1022.6
20260509001601 76 113 0.0 6.0 0.00 0.00 0.00 18 1022.8
20260509001058 76 0 0.0 6.0 0.00 0.00 0.00 17 1022.7
20260509000602 76 62 1.0 6.0 0.00 0.00 0.00 18 1022.8
20260508235558 76 314 1.0 10.0 0.00 0.00 0.00 17 1022.7
20260508235058 76 137 1.0 10.0 0.00 0.00 0.00 16 1022.8
20260508234558 76 117 2.0 10.0 0.00 0.00 0.00 17 1022.9
20260508234059 76 117 3.0 10.0 0.00 0.00 0.00 15 1022.9
20260508233558 76 217 2.0 9.0 0.00 0.00 0.00 15 1023.0
20260508233134 76 130 2.0 9.0 0.00 0.00 0.00 15 1022.9
20260508232558 77 238 1.0 6.0 0.00 0.00 0.00 14 1023.0
20260508232058 77 98 1.0 5.0 0.00 0.00 0.00 16 1023.0
20260508231558 77 124 1.0 9.0 0.00 0.00 0.00 15 1023.0
20260508231058 77 30 1.0 9.0 0.00 0.00 0.00 13 1023.0
20260508230558 77 163 2.0 8.0 0.00 0.00 0.00 14 1022.9
20260508230101 77 4 2.0 11.0 0.00 0.00 0.00 13 1022.9
20260508225558 77 215 1.0 11.0 0.00 0.00 0.00 13 1023.0
20260508225058 77 101 1.0 11.0 0.00 0.00 0.00 14 1023.1
20260508224621 77 0 0.0 7.0 0.00 0.00 0.00 11 1023.1
20260508224058 78 44 1.0 7.0 0.00 0.00 0.00 10 1022.9
20260508223559 78 130 2.0 9.0 0.00 0.00 0.00 13 1023.0
20260508223110 78 284 1.0 9.0 0.00 0.00 0.00 11 1023.1
20260508222558 78 289 1.0 8.0 0.00 0.00 0.00 11 1023.1
20260508222059 78 0 1.0 6.0 0.00 0.00 0.00 11 1023.1
20260508221610 78 107 1.0 6.0 0.00 0.00 0.00 12 1023.1
20260508221058 78 32 1.0 6.0 0.00 0.00 0.00 12 1023.1
20260508220607 78 231 2.0 6.0 0.00 0.00 0.00 10 1023.1
20260508220059 78 68 2.0 7.0 0.00 0.00 0.00 12 1022.9
20260508215558 78 105 3.0 7.0 0.00 0.00 0.00 12 1023.1
20260508215058 78 182 3.0 7.0 0.00 0.00 0.00 11 1023.1
20260508214559 78 152 3.0 6.0 0.00 0.00 0.00 9 1023.1
20260508214058 78 117 1.0 5.0 0.00 0.00 0.00 10 1023.2
20260508213559 78 252 2.0 9.0 0.00 0.00 0.00 11 1023.4
20260508213057 78 210 0.0 9.0 0.00 0.00 0.00 9 1023.3
20260508212558 79 172 3.0 8.0 0.00 0.00 0.00 10 1023.2
20260508212057 79 254 1.0 5.0 0.00 0.00 0.00 12 1023.3
20260508211555 78 0 2.0 9.0 0.00 0.00 0.00 9 1023.4
20260508211058 78 226 3.0 9.0 0.00 0.00 0.00 10 1023.6
20260508210558 78 61 2.0 9.0 0.00 0.00 0.00 12 1023.7
20260508210058 78 292 2.0 11.0 0.00 0.00 0.00 10 1023.6
20260508205559 78 169 3.0 11.0 0.00 0.00 0.00 9 1023.7
20260508205058 78 284 3.0 8.0 0.00 0.00 0.00 10 1023.8
20260508204558 79 243 2.0 8.0 0.00 0.00 0.00 10 1023.8
20260508204101 79 158 1.0 8.0 0.00 0.00 0.00 10 1023.9
20260508203558 79 240 2.0 8.0 0.00 0.00 0.00 9 1023.9
20260508203100 79 207 1.0 5.0 0.00 0.00 0.00 10 1023.8
20260508202559 78 270 2.0 6.0 0.00 0.00 0.00 10 1023.9
20260508202058 78 60 1.0 6.0 0.00 0.00 0.00 11 1023.9
20260508201558 77 288 1.0 6.0 0.00 0.00 0.00 10 1024.0
20260508201058 77 306 1.0 6.0 0.00 0.00 0.00 11 1023.9
20260508200558 77 55 1.0 6.0 0.00 0.00 0.00 12 1024.0
20260508200111 75 313 1.0 8.0 0.00 0.00 0.00 12 1024.1
20260508195558 75 54 2.0 8.0 0.00 0.00 0.00 11 1024.1
20260508195058 75 71 4.0 7.0 0.00 0.00 0.00 12 1024.1
20260508194605 75 51 2.0 8.0 0.00 0.00 0.00 11 1024.1
20260508194057 75 34 3.0 8.0 0.00 0.00 0.00 13 1024.2
20260508193558 75 258 3.0 7.0 0.00 0.00 0.00 12 1024.3
20260508193105 75 307 3.0 10.0 0.00 0.00 0.00 12 1024.3
20260508192600 75 354 3.0 10.0 0.00 0.00 0.00 13 1024.3
20260508192059 74 56 4.0 10.0 0.00 0.00 0.00 12 1024.3
20260508191557 74 264 3.0 7.0 0.00 0.00 0.00 14 1024.4
20260508191058 74 43 3.0 7.0 0.00 0.00 0.00 13 1024.5
20260508190559 74 56 2.0 7.0 0.00 0.00 0.00 13 1024.6
20260508190132 73 358 3.0 8.0 0.00 0.00 0.00 12 1024.5
20260508185557 73 30 3.0 8.0 0.00 0.00 0.00 13 1024.4
20260508185058 73 358 4.0 8.0 0.00 0.00 0.00 12 1024.5
20260508184559 74 44 2.0 5.0 0.00 0.00 0.00 14 1024.6
20260508184100 74 333 2.0 6.0 0.00 0.00 0.00 13 1024.7
20260508183557 73 357 1.0 7.0 0.00 0.00 0.00 16 1024.7
20260508183103 71 20 4.0 7.0 0.00 0.00 0.00 16 1024.8
20260508182557 72 43 3.0 8.0 0.00 0.00 0.00 17 1025.0
20260508182058 72 55 2.0 8.0 0.00 0.00 0.00 16 1024.9
20260508181558 72 39 3.0 7.0 0.00 0.00 0.00 15 1025.0
20260508181058 72 27 1.0 5.0 0.00 0.00 0.00 15 1025.0
20260508180558 71 287 2.0 7.0 0.00 0.00 0.00 15 1024.9
20260508180104 70 77 2.0 7.0 0.00 0.00 0.00 17 1025.0
20260508175558 69 63 3.0 7.0 0.00 0.00 0.00 19 1025.2
20260508175101 69 87 2.0 10.0 0.00 0.00 0.00 19 1025.2
20260508174612 69 70 3.0 10.0 0.00 0.00 0.00 17 1025.3
20260508174057 69 32 1.0 6.0 0.00 0.00 0.00 18 1025.4
20260508173558 68 23 3.0 6.0 0.00 0.00 0.00 17 1025.5
20260508173059 70 55 2.0 4.0 0.00 0.00 0.00 19 1025.5
20260508172603 70 348 2.0 5.0 0.00 0.00 0.00 20 1025.4
20260508172058 69 30 2.0 5.0 0.00 0.00 0.00 21 1025.3
20260508171601 69 46 0.0 4.0 0.00 0.00 0.00 21 1025.5
20260508171100 68 27 1.0 4.0 0.00 0.00 0.00 23 1025.3
20260508170558 67 0 0.0 4.0 0.00 0.00 0.00 21 1025.6
20260508170059 66 333 2.0 5.0 0.00 0.00 0.00 22 1025.5
20260508165558 65 66 2.0 5.0 0.00 0.00 0.00 24 1025.5
20260508165058 65 44 1.0 5.0 0.00 0.00 0.00 24 1025.6
20260508164556 64 337 1.0 7.0 0.00 0.00 0.00 25 1025.5
20260508164057 62 52 4.0 7.0 0.00 0.00 0.00 28 1025.6
20260508163601 62 56 4.0 7.0 0.00 0.00 0.00 29 1025.6
20260508163111 62 60 1.0 4.0 0.00 0.00 0.00 33 1025.6
20260508162558 62 342 2.0 4.0 0.00 0.00 0.00 32 1025.6
20260508162101 61 46 1.0 4.0 0.00 0.00 0.00 34 1025.7
20260508161559 61 46 1.0 3.0 0.00 0.00 0.00 38 1025.8
20260508161104 61 50 1.0 4.0 0.00 0.00 0.00 35 1025.7
20260508160600 60 63 0.0 4.0 0.00 0.00 0.00 39 1025.8
20260508160115 58 74 2.0 4.0 0.00 0.00 0.00 40 1025.8
20260508155558 58 55 1.0 4.0 0.00 0.00 0.00 43 1025.9
20260508155058 57 51 1.0 4.0 0.00 0.00 0.00 44 1025.8
20260508154603 56 78 2.0 4.0 0.00 0.00 0.00 43 1025.8
20260508154058 56 82 2.0 3.0 0.00 0.00 0.00 49 1025.8
20260508153601 54 82 2.0 2.0 0.00 0.00 0.00 59 1025.8
20260508153058 54 72 0.0 1.0 0.00 0.00 0.00 65 1025.8
20260508152559 53 0 0.0 3.0 0.00 0.00 0.00 67 1025.7
20260508152059 52 82 1.0 3.0 0.00 0.00 0.00 69 1025.7
20260508151602 50 43 0.0 3.0 0.00 0.00 0.00 71 1025.7
20260508151059 49 64 0.0 3.0 0.00 0.00 0.00 70 1025.7
20260508150557 49 0 0.0 1.0 0.00 0.00 0.00 73 1025.7
20260508150057 48 0 0.0 1.0 0.00 0.00 0.00 74 1025.8
20260508145601 47 0 0.0 0.0 0.00 0.00 0.00 76 1026.0
20260508145102 46 0 0.0 0.0 0.00 0.00 0.00 78 1026.0
20260508144556 45 0 0.0 0.0 0.00 0.00 0.00 78 1025.9
20260508144057 45 0 0.0 0.0 0.00 0.00 0.00 79 1025.8
20260508143558 45 0 0.0 0.0 0.00 0.00 0.00 80 1025.7
20260508143101 44 0 0.0 0.0 0.00 0.00 0.00 80 1025.8
20260508142558 43 0 0.0 0.0 0.00 0.00 0.00 81 1025.7
20260508142100 43 0 0.0 0.0 0.00 0.00 0.00 80 1025.7
20260508141559 43 0 0.0 0.0 0.00 0.00 0.00 81 1025.7
20260508141058 42 0 0.0 0.0 0.00 0.00 0.00 81 1025.6
20260508140558 41 0 0.0 0.0 0.00 0.00 0.00 84 1025.6
20260508140110 40 0 0.0 0.0 0.00 0.00 0.00 84 1025.5
20260508135558 39 0 0.0 0.0 0.00 0.00 0.00 90 1025.5
20260508135058 37 0 0.0 0.0 0.00 0.00 0.00 92 1025.5
20260508134557 35 0 0.0 0.0 0.00 0.00 0.00 92 1025.4
20260508134057 34 0 0.0 0.0 0.00 0.00 0.00 92 1025.3
20260508133601 34 0 0.0 0.0 0.00 0.00 0.00 91 1025.5
20260508133100 34 0 0.0 0.0 0.00 0.00 0.00 90 1025.3
20260508132557 34 0 0.0 0.0 0.00 0.00 0.00 90 1025.3
20260508132058 34 0 0.0 1.0 0.00 0.00 0.00 91 1025.3
20260508131600 34 0 0.0 1.0 0.00 0.00 0.00 90 1025.2
20260508131058 34 168 0.0 0.0 0.00 0.00 0.00 90 1025.3
20260508130602 34 0 0.0 0.0 0.00 0.00 0.00 89 1025.2
20260508130106 35 0 0.0 0.0 0.00 0.00 0.00 90 1025.1
20260508125558 35 0 0.0 0.0 0.00 0.00 0.00 89 1025.3
20260508125058 35 0 0.0 1.0 0.00 0.00 0.00 90 1025.3
20260508124603 35 0 0.0 1.0 0.00 0.00 0.00 90 1025.3
20260508124058 35 174 0.0 1.0 0.00 0.00 0.00 87 1025.3
20260508123558 35 209 0.0 2.0 0.00 0.00 0.00 88 1025.3
20260508123100 35 0 0.0 2.0 0.00 0.00 0.00 88 1025.3
20260508122557 35 183 0.0 1.0 0.00 0.00 0.00 87 1025.3
20260508122100 36 0 0.0 0.0 0.00 0.00 0.00 90 1025.3
20260508121629 36 0 0.0 0.0 0.00 0.00 0.00 90 1025.2
20260508121058 36 0 0.0 0.0 0.00 0.00 0.00 90 1025.2
20260508120556 36 0 0.0 0.0 0.00 0.00 0.00 88 1025.0
20260508120057 36 0 0.0 0.0 0.00 0.00 0.00 86 1025.1
20260508115557 36 0 0.0 2.0 0.00 0.00 0.00 86 1025.1
20260508115059 36 0 0.0 2.0 0.00 0.00 0.00 86 1025.1
20260508114555 36 0 1.0 2.0 0.00 0.00 0.00 86 1025.1
20260508114057 37 0 0.0 1.0 0.00 0.00 0.00 85 1025.1
20260508113559 37 0 0.0 1.0 0.00 0.00 0.00 88 1025.2
20260508113104 36 168 0.0 1.0 0.00 0.00 0.00 84 1025.1
20260508112557 37 0 0.0 1.0 0.00 0.00 0.00 85 1025.2
20260508112058 37 0 0.0 1.0 0.00 0.00 0.00 86 1025.0
20260508111607 38 0 0.0 1.0 0.00 0.00 0.00 88 1025.1
20260508111059 37 172 0.0 1.0 0.00 0.00 0.00 84 1025.1
20260508110559 37 181 0.0 1.0 0.00 0.00 0.00 87 1025.3
20260508110059 37 0 0.0 0.0 0.00 0.00 0.00 83 1025.2
20260508105557 38 0 0.0 0.0 0.00 0.00 0.00 85 1025.3
20260508105057 38 0 0.0 0.0 0.00 0.00 0.00 86 1025.4
20260508104604 38 0 0.0 0.0 0.00 0.00 0.00 84 1025.3
20260508104057 38 0 0.0 0.0 0.00 0.00 0.00 81 1025.4
20260508103556 38 0 0.0 0.0 0.00 0.00 0.00 83 1025.4
20260508103057 38 0 0.0 1.0 0.00 0.00 0.00 85 1025.5
20260508102557 38 0 0.0 2.0 0.00 0.00 0.00 83 1025.5
20260508102101 38 0 0.0 2.0 0.00 0.00 0.00 81 1025.3
20260508101557 39 0 0.0 0.0 0.00 0.00 0.00 81 1025.5
20260508101058 39 0 0.0 0.0 0.00 0.00 0.00 82 1025.3
20260508100601 39 0 0.0 1.0 0.00 0.00 0.00 81 1025.4
20260508095558 40 0 0.0 0.0 0.00 0.00 0.00 79 1025.5
20260508095105 41 0 0.0 2.0 0.00 0.00 0.00 79 1025.3
20260508094607 41 0 0.0 2.0 0.00 0.00 0.00 80 1025.4
20260508094055 41 0 0.0 2.0 0.00 0.00 0.00 81 1025.3
20260508093555 41 0 0.0 1.0 0.00 0.00 0.00 79 1025.3
20260508093100 41 181 0.0 1.0 0.00 0.00 0.00 80 1025.4
20260508092558 42 0 0.0 0.0 0.00 0.00 0.00 78 1025.3
20260508092057 42 0 0.0 1.0 0.00 0.00 0.00 79 1025.4
20260508091606 43 0 0.0 1.0 0.00 0.00 0.00 79 1025.3
20260508091057 42 181 0.0 2.0 0.00 0.00 0.00 81 1025.2
20260508090557 42 0 0.0 2.0 0.00 0.00 0.00 78 1025.3
20260508090111 43 181 0.0 2.0 0.00 0.00 0.00 77 1025.3
20260508085557 43 0 0.0 0.0 0.00 0.00 0.00 78 1025.3
20260508085056 43 0 0.0 1.0 0.00 0.00 0.00 77 1025.3
20260508084607 43 0 0.0 1.0 0.00 0.00 0.00 78 1025.5
20260508084058 43 0 0.0 1.0 0.00 0.00 0.00 79 1025.5
20260508083558 44 0 0.0 0.0 0.00 0.00 0.00 76 1025.5
20260508083055 45 0 0.0 0.0 0.00 0.00 0.00 77 1025.7
20260508082559 45 0 0.0 2.0 0.00 0.00 0.00 79 1025.6
20260508082055 44 0 1.0 2.0 0.00 0.00 0.00 79 1025.7
20260508081610 44 195 0.0 2.0 0.00 0.00 0.00 76 1025.7
20260508081059 44 169 0.0 2.0 0.00 0.00 0.00 75 1025.9
20260508080555 45 0 0.0 0.0 0.00 0.00 0.00 77 1025.8
20260508080101 45 0 0.0 0.0 0.00 0.00 0.00 78 1025.8
20260508075559 45 0 0.0 0.0 0.00 0.00 0.00 76 1025.7
20260508075056 46 0 0.0 0.0 0.00 0.00 0.00 75 1025.8
20260508074558 46 0 0.0 0.0 0.00 0.00 0.00 76 1025.8
20260508074059 46 0 0.0 1.0 0.00 0.00 0.00 77 1025.7
20260508073559 46 0 0.0 1.0 0.00 0.00 0.00 75 1025.7
20260508073107 46 210 0.0 0.0 0.00 0.00 0.00 77 1025.9